星链-34569 (STARLINK-34569)

导读 | 星芒AI

STARLINK-34569 是 SpaceX Starlink 卫星互联网项目中的一颗低轨卫星,属于第5批部署的星链卫星之一。该卫星运行在约550公里高的近地轨道,旨在为全球用户提供高速、低延迟的宽带互联网服务。作为星链计划的重要组成部分,STARLINK-34569 与其他卫星协同工作,提升网络覆盖和连接稳定性,尤其服务于传统网络难以覆盖的偏远地区。

基本信息
目录编号:
64610
目录名称:
STARLINK-34569
国际标识:
2025-137S
轨道中心:
EARTH
卫星名称:
星链-34569
卫星全名:
星链-34569 (STARLINK-34569)
卫星状态:
在轨 (已飞行127 天)
发射日期:
2025-06-25 UTC
国别 :
美国 (US)
星等 :
--
轨道信息
数据来源 国际轨道数据
星历时间: 2025-10-30T10:27:17+0800
16小时前
查看轨道信息
半长轴: 6820.499km
偏心率: 0.0008676
轨道倾角: 53.159°
近地点辐角 244.670°
升交点赤经 226.616°
平近点角 115.341°
近地点: 436.446km
远地点: 448.282km
周期: 93.429分钟
每日圈数: 15.412694
详细信息
固有亮度:
5
最大亮度:
2.5
卫星平台:
Starlink V1.0
覆盖范围:
全球
运营商:
太空探索技术公司
运营商所在国:
美国
制造商(研发单位):
太空探索技术公司
制造商所在国:
美国
使用方式:
暂无
卫星简介
Starlink 计划是 SpaceX 推出的全球卫星互联网项目,通过发射低轨道卫星,为全球尤其是偏远地区提供高速、低延迟的互联网服务。自 2019 年起,Starlink 已部署数千颗卫星,旨在缩小全球数字鸿沟,推动互联网普及。该项目还为军事、航空等行业提供通信支持,带来广泛经济效益。
2D轨道图
3D轨道图
轨道高度分析图
轨道倾角分析图
轨道综合分析图
查看轨道综合分析图